Showing default

AETHER-12, 67383

Orbit data source: Space-Track

AETHER-12, 67383 is a payload satellite owned by Kepler Comms (CA) in SSO that was launched on Sun, 11 Jan 2026 UTC via an FALCON 9 launch vehicle from the Air Force Western Test Range (AFWTR). Payload-class satellites include a variety of spacecraft equipped with specific instruments for various scientific and technological missions. These include communications satellites like Starlink; space stations such as the ISS; scientific satellites like the Hubble; Earth observation satellites from companies like Planet Labs, Umbra, and HawkEye 360; GPS; miniature CubeSats for education and research; and military/defense satellites.

Loading next visibility...
Identifier
67383, 2026-004W
Orbit
SSO
Country
Flag of CACA
Related business
Manufacturer
Kepler Comms
Mission
Operational spacecraft
Bus & Motor
KEPLER GEN2B, Unknown motor
Mass
300 kg wet, 300 kg dry
Launch date (UTC)
2026-01-11 (3 months ago)
Launch vehicle
FALCON 9
Launch site
Air Force Western Test Range (AFWTR)
Object type
Payload
Rocket body
Debris
Shape & HBR
Unknown shape, 7.6 m
Radar Cross Section
RCS unknown

Expand to show TLE details & history
Last TLE update: 15 hours ago

TLE from 15 hours ago
0 AETHER-12
1 67383U 26004W   26094.94294350  .00001250  00000-0  14246-3 0  9994
2 67383  97.8013  94.7144 0005959  30.7184 329.4381 14.87890511 12396
Epoch: 2026-04-04T22:37Z
TLE epoch observation values (Epoch: 2026-04-04T22:37:50.318Z)
Latitude
0.00005°
Longitude
-78.00074°
Altitude
603.98 km
Speed
7.559 km/s
True Right ascension
06h 18m 51s
True Declination
0° 00' 00"
Sunlit
Object was in daylight at epoch
Visualization orbit readout
Latitude
Unknown
Longitude
Unknown
Altitude
Unknown
Speed
Unknown
Apparent Right ascension
Unknown
Apparent Declination
Unknown
Sunlit
N/A
Visualization observer readout
Local Sidereal Time
19:30:37
Azimuth
Unknown
Elevation
Unknown
Doppler factor
Unknown
Orbital elements
Apogee altitude
605.713 km
Perigee altitude
597.394 km
Semi-major axis
6,979.691 km
Eccentricity
0.0006
Inclination
97.8013°
RAAN
94.7144°
Arg. of periapsis
30.7184°
True anomaly
329.40336°
Mean anomaly
329.4381°
Eccentric anomaly
329.42073°
Mean motion
3.72211 °/min
Orbital period
96.72 mins
BSTAR
0.00014246
Loading maneuver chart data...
Computing Atmospheric mass density...
Loading historical data...
Loading historical data...
Loading historical data...
Loading historical data...
Loading historical data...
Loading historical data...
Loading historical data...

Documentation

Showing up to 5 results
|